Volver al catálogo

STARLINK-31551

ActivoComunicacionesVLEO
NORAD 59191·PAYLOAD·🇺🇸 United States

Lanzado Mar 10, 2024 desde Cape Canaveral Space Force Station

Loading…

Próximos Pases (próximas 24 horas)

TLE

ActualizadoSource: CelesTrak SupGP

Época: Sep 14, 2026, 22:41 UTC

1 59191C 24045P   26257.94562500  .00039100  00000+0  14164-2 0  2570
2 59191  43.0006  99.9453 0001429 276.5676 299.8144 15.27554076    14

Sigue STARLINK-31551 en tiempo real con AllMySat

Download on the App Store